Location: Holyhead Bay
(53.3667°N, 4.6667°W)
Time: 18:07:59
(UTC+00:00)

PAYLOAD B - Pass Details

Date: 24 November 2020
Orbit: 849 x 872 km, 99.1° (Epoch: 17 January)

Event Time Altitude Azimuth Distance (km) Brightness Sun altitude
Rises 16:52:33 0° 155° (SSE) 3,448 7.4 -6.3°
Reaches altitude 10° 16:54:56 10° 153° (SSE) 2,512 6.7 -6.6°
Maximum altitude 17:00:30 74° 70° (ENE) 904 4.2 -7.3°
Drops below altitude 10° 17:06:04 10° 346° (NNW) 2,516 6.6 -8.1°
Sets 17:08:27 0° 345° (NNW) 3,454 7.3 -8.4°
